Location: Unspecified
(0.0000°N, 0.0000°E)
Time: 21:20:41
(UTC+00:00)

Hubble Space Telescope - Pass Details

Date: 23 March 2023
Orbit: 527 x 530 km, 28.5° (Epoch: 30 March)

Event Time Altitude Azimuth Distance (km) Brightness Sun altitude
Rises 19:39:06 0° 242° (WSW) 2,654 5.3 -23.1°
Reaches altitude 10° 19:41:21 10° 243° (WSW) 1,764 4.2 -23.7°
Enters shadow 19:44:55 65° 264° (W) 579 1.0 -24.6°
